• Join FlightAware (Why Join?)
  • Login
  • US Flag 
11:59AM EST


 

Airport Tracker/Info


-or-


 

Live Flight TrackerFlight Track Log ✈ N614AE ✈ 22-May-2012 ✈ KMIA - KCLT

Flight Track Log - Related Links

Times and Time Zones

All times are in EDT time to prevent confusion due to time zone crossing. See the N614AE flight status page for this flight to view local times or setup timezone preferences in your user account.

Time Position Orientation Groundspeed Altitude Reporting Facility
EDT Latitude Longitude Course Direction KTS MPH feet Rate Location/Type
11:24AM 25.8520 -80.3086 147° Southeast  Level FlightAware Approximate
11:25AM 25.7983 -80.2697 357° North 173 199 800  Level Miami Center
11:30AM 26.0506 -80.2839 288° West 287 330 11,900 2,093 Climbing Miami Center
11:31AM 26.0758 -80.3703 320° Northwest 307 353 13,600 1,750 Climbing Miami Center
11:32AM 26.1533 -80.4419 335° Northwest 322 371 15,400 1,950 Climbing Miami Center
11:33AM 26.2381 -80.4861 336° Northwest 329 379 17,500 1,850 Climbing Miami Center
11:34AM 26.3247 -80.5283 340° North 335 386 19,100 1,250 Climbing Miami Center
11:35AM 26.4217 -80.5683 343° North 353 406 20,000 1,000 Climbing Miami Center
11:36AM 26.5253 -80.6042 342° North 371 427 21,100 1,000 Climbing Miami Center
11:37AM 26.6308 -80.6422 342° North 391 450 22,000 950 Climbing Miami Center
11:38AM 26.7444 -80.6833 341° North 411 473 23,000 950 Climbing Miami Center
11:39AM 26.8561 -80.7264 343° North 417 480 23,900 950 Climbing Miami Center
11:40AM 26.9658 -80.7650 343° North 417 480 24,900 950 Climbing Miami Center
11:41AM 27.0817 -80.8039 342° North 422 486 25,800 950 Climbing Miami Center
11:42AM 27.1953 -80.8450 342° North 422 486 26,800 850 Climbing Miami Center
11:43AM 27.2864 -80.8786 344° North 422 486 27,500 850 Climbing Miami Center
11:44AM 27.4125 -80.9206 342° North 416 479 28,500 1,000 Climbing Miami Center
11:45AM 27.5219 -80.9617 341° North 421 484 29,500 950 Climbing Miami Center
11:46AM 27.6375 -81.0058 343° North 421 484 30,400 950 Climbing Miami Center
11:47AM 27.7514 -81.0450 343° North 426 490 31,400 950 Climbing Miami Center
11:48AM 27.8669 -81.0844 351° North 432 497 32,300 1,050 Climbing Miami Center
11:49AM 28.0061 -81.1086 352° North 444 511 33,500 1,050 Climbing Miami Center
11:50AM 28.1308 -81.1297 351° North 450 518 34,400 900 Climbing Miami Center
11:51AM 28.2447 -81.1506 352° North 456 525 35,300 950 Climbing Miami Center
11:52AM 28.3861 -81.1725 352° North 456 525 36,300 850 Climbing Miami Center
11:53AM 28.5106 -81.1914 351° North 462 532 37,000 350 Climbing Miami Center
11:54AM 28.6144 -81.2097 North 462 532 37,000 -439 Level Miami Center
12:42PM 34.3650 -80.1150 330° Northwest 394 453 15,600 -502 Descending FAA TRACON SMA TRACON (SMA)
12:46PM 34.7217 -80.3614 315° West 336 387 11,000 -964 Descending FAA TRACON SMA TRACON (SMA)
12:46PM 34.7608 -80.4094 313° West 291 335 11,100  Climbing FAA TRACON SMA TRACON (SMA)
12:47PM 34.7961 -80.4556 314° West 298 343 11,000 -525 Descending FAA TRACON SMA TRACON (SMA)
12:48PM 34.8328 -80.5017 314° West 300 345 10,400 -741 Descending FAA TRACON SMA TRACON (SMA)
12:48PM 34.8722 -80.5514 314° West 300 345 10,000 -300 Descending FAA TRACON SMA TRACON (SMA)
12:49PM 34.9119 -80.6014 314° West 298 343 10,000  Level FAA TRACON SMA TRACON (SMA)
12:50PM 34.9494 -80.6483 314° West 295 339 10,000  Level FAA TRACON SMA TRACON (SMA)
12:50PM 34.9889 -80.6978 314° West 298 343 10,000  Level FAA TRACON SMA TRACON (SMA)
12:51PM 35.0281 -80.7469 314° West 299 344 10,000 -75 Level FAA TRACON SMA TRACON (SMA)
12:52PM 35.0642 -80.7922 339° North 301 346 9,900 -600 Descending FAA TRACON SMA TRACON (SMA)
12:52PM 35.1167 -80.8164 357° North 297 342 9,200 -675 Descending FAA TRACON SMA TRACON (SMA)
12:53PM 35.1728 -80.8203 29° Northeast 294 338 9,000 -825 Descending FAA TRACON SMA TRACON (SMA)
12:54PM 35.2211 -80.7878 49° Northeast 295 339 8,100 -1,275 Descending FAA TRACON SMA TRACON (SMA)
12:54PM 35.2522 -80.7444 44° Northeast 279 321 7,300 -1,425 Descending FAA TRACON SMA TRACON (SMA)
12:55PM 35.2867 -80.7031 336° Northwest 252 290 6,200 -1,650 Descending FAA TRACON SMA TRACON (SMA)
12:56PM 35.3250 -80.7239 281° West 233 268 5,100 -1,575 Descending FAA TRACON SMA TRACON (SMA)
12:56PM 35.3325 -80.7711 238° Southwest 223 257 4,100 -1,125 Descending FAA TRACON SMA TRACON (SMA)
12:57PM 35.3128 -80.8100 226° Southwest 220 253 3,600 -900 Descending FAA TRACON SMA TRACON (SMA)
12:58PM 35.2839 -80.8472 229° Southwest 218 251 2,900 -1,350 Descending FAA TRACON SMA TRACON (SMA)
12:58PM 35.2586 -80.8822 228° Southwest 202 232 1,800 -1,125 Descending FAA TRACON SMA TRACON (SMA)
12:59PM 35.2425 -80.9042 228° Southwest 152 175 1,400 -675 Descending FAA TRACON SMA TRACON (SMA)
01:00PM 35.2247 -80.9281 280° West 139 160 900 1,025 Descending FAA TRACON SMA TRACON (SMA)
01:02PM 35.2439 -81.0558 343° North 237 273 4,100 1,039 Climbing Atlanta Center
01:03PM 35.3069 -81.0789 27° Northeast 235 270 4,000 -344 Descending Atlanta Center
01:04PM 35.3583 -81.0467 27° Northeast 226 260 3,400 -590 Descending Atlanta Center